Location: Unspecified
(54.1780°N, 0.0000°E)
Time: 14:42:55
(UTC+00:00)

Altair - Pass Details

Date: 22 June 2019
Orbit: 1501 x 1683 km, 47.2° (Epoch: 20 July)

Event Time Altitude Azimuth Distance (km) Brightness Sun altitude
Rises 20:30:02 0° 232° (SW) 4,715 10.2 0.0°
Reaches altitude 10° 20:33:11 10° 227° (SW) 3,757 9.6 -0.4°
Maximum altitude 20:42:09 47° 157° (SSE) 2,036 7.8 -1.3°
Drops below altitude 10° 20:51:26 10° 88° (E) 3,898 9.2 -2.2°
Sets 20:54:46 0° 83° (E) 4,905 9.8 -2.6°
